Location: Appersberg
(48.2833°N, 14.1833°E)
Time: 21:37:47
(UTC+00:00)

Daily predictions for brighter satellites

Satellite Brightness Start Highest point End
(mag) Time Altitude Azimuth Time Altitude Azimuth Time Altitude Azimuth
Cosmos 1271 Rocket 2.6 16:16:21 10° S 16:20:04 71° E 16:23:49 10° NNE
Okean O Rocket 3.1 16:16:04 10° S 16:20:18 44° W 16:24:34 10° NNW
CORIOLIS 4.1 16:15:29 10° SSE 16:20:49 70° ENE 16:26:10 10° N
Cosmos 2219 4.0 16:16:00 10° SSE 16:20:52 31° ESE 16:25:46 10° NE
Okean-O 3.0 16:17:13 10° SE 16:21:23 42° ENE 16:25:34 10° N
Starlink AS 2.9 16:20:22 10° WSW 16:23:17 66° NNW 16:26:12 10° ENE
Starlink BA 2.9 16:20:37 10° WSW 16:23:31 65° NNW 16:26:27 10° ENE
Starlink AU 2.9 16:20:51 10° WSW 16:23:45 65° NNW 16:26:40 10° ENE
Starlink AQ 2.9 16:20:57 10° WSW 16:23:53 65° NNW 16:26:50 10° ENE
Starlink AT 2.9 16:21:04 10° WSW 16:23:59 65° NNW 16:26:54 10° ENE
Starlink BB 2.9 16:21:17 10° WSW 16:24:12 65° NNW 16:27:07 10° ENE
Starlink BC 2.9 16:21:31 10° WSW 16:24:26 65° NNW 16:27:21 10° ENE
Starlink BK 2.9 16:21:44 10° WSW 16:24:39 64° NNW 16:27:34 10° ENE
Starlink AY 2.9 16:21:59 10° WSW 16:24:53 64° NNW 16:27:48 10° ENE
Starlink AW 2.9 16:22:12 10° WSW 16:25:06 64° NNW 16:28:01 10° ENE
Starlink BJ 2.9 16:22:25 10° WSW 16:25:20 64° NNW 16:28:15 10° ENE
Starlink AV 2.9 16:22:38 10° WSW 16:25:33 63° NNW 16:28:28 10° ENE
Cosmos 1607 4.0 16:19:29 10° SSW 16:25:37 84° SE 16:31:50 10° NE
Starlink BD 2.9 16:22:53 10° WSW 16:25:47 63° NNW 16:28:42 10° ENE
Feng Yun 1-1 Rocket 4.4 16:20:04 10° SSE 16:25:48 84° ENE 16:31:42 10° NNW
Starlink BE 2.9 16:23:06 10° WSW 16:26:01 63° NNW 16:28:58 10° ENE
Starlink BM 2.9 16:23:20 10° WSW 16:26:14 63° NNW 16:29:09 10° ENE
Starlink AX 2.9 16:23:33 10° WSW 16:26:28 63° NNW 16:29:23 10° ENE
Starlink BH 2.9 16:23:47 10° WSW 16:26:42 62° NNW 16:29:37 10° ENE
Cosmos 1340 Rocket 3.0 16:22:51 10° N 16:26:44 50° ENE 16:30:36 10° SSE
Starlink AZ 2.9 16:24:00 10° WSW 16:26:54 62° NNW 16:29:48 10° ENE
Starlink BG 2.9 16:24:14 10° WSW 16:27:08 62° NNW 16:30:02 10° ENE
Starlink BF 2.9 16:24:27 10° WSW 16:27:21 62° NNW 16:30:14 10° ENE
Starlink BL 3.0 16:24:40 10° WSW 16:27:35 62° NNW 16:30:29 10° ENE
Starlink AH 2.9 16:24:55 10° WSW 16:27:48 61° NNW 16:30:41 10° ENE
Starlink AC 2.9 16:25:09 10° WSW 16:28:03 61° NNW 16:30:54 10° ENE
Starlink X 2.9 16:25:21 10° WSW 16:28:15 61° NNW 16:31:06 10° ENE
Starlink AE 3.0 16:25:32 10° WSW 16:28:28 61° NNW 16:31:21 11° ENE
Starlink Z 3.0 16:25:49 10° WSW 16:28:43 61° NNW 16:31:33 11° ENE
Starlink AK 3.0 16:26:02 10° WSW 16:28:56 60° NNW 16:31:45 11° ENE
Starlink AL 3.0 16:26:15 10° WSW 16:29:10 60° NNW 16:31:58 11° ENE
SJ 16-02 3.6 16:25:48 10° WSW 16:29:12 21° NW 16:32:37 10° N
Starlink AD 3.0 16:26:29 10° WSW 16:29:22 60° NNW 16:32:11 11° ENE
Starlink Y 3.0 16:26:56 10° WSW 16:29:49 60° NNW 16:32:37 11° ENE
SL-14 R/B 3.3 16:25:58 10° S 16:29:56 66° E 16:33:52 10° NNE
Starlink AG 3.0 16:27:09 10° WSW 16:30:03 59° NNW 16:32:50 11° ENE
Starlink W 3.0 16:27:21 10° WSW 16:30:16 60° NNW 16:33:04 11° ENE
Starlink AJ 3.0 16:27:36 10° WSW 16:30:30 59° NNW 16:33:16 11° ENE
Starlink AM 3.0 16:28:05 10° WSW 16:30:58 59° NNW 16:33:43 11° ENE
Starlink AP 3.0 16:28:18 10° WSW 16:31:11 59° NNW 16:33:55 11° ENE
Meteor 2-5 Rocket 4.1 16:25:43 10° SSW 16:31:13 69° WNW 16:36:50 10° N
Starlink AA 3.0 16:28:30 10° WSW 16:31:24 58° NNW 16:34:08 11° ENE
Starlink AF 3.0 16:28:44 10° WSW 16:31:38 58° NNW 16:34:21 11° ENE
Starlink AB 3.0 16:28:57 10° WSW 16:31:50 58° NNW 16:34:33 11° ENE
Starlink AN 3.0 16:29:10 10° WSW 16:32:04 58° NNW 16:34:46 11° ENE
USA 267 3.4 16:25:34 10° NE 16:32:06 77° NNW 16:38:38 10° WSW
Cosmos 2297 Rocket 3.1 16:28:24 10° SSE 16:33:06 28° ESE 16:37:50 10° NE
Timation 2 Rocket 4.0 16:27:02 10° SSW 16:33:08 82° ESE 16:39:33 10° NNE
Cosmos 1980 3.7 16:28:02 10° NNW 16:33:43 62° ENE 16:39:21 10° SE
FengYun 1-2 T 4.5 16:29:33 10° SE 16:34:58 51° ENE 16:40:26 10° N
ATLAS 5 CENTAUR R/B 3.9 16:33:29 10° NNW 16:36:31 23° NNE 16:43:10 10° E
Cosmos 2341 Rocket 4.4 16:34:58 10° SSE 16:40:56 43° E 16:46:52 10° NNE
H-2A R/B 3.5 16:37:38 10° S 16:41:25 57° W 16:45:16 10° NNW
Cosmos 2219 Rocket 3.2 16:36:00 10° NW 16:41:33 53° WSW 16:47:01 10° S
Cosmos 494 Rocket 3.9 16:38:31 10° NNW 16:43:40 83° ENE 16:48:47 10° SSE
Cosmos 2227 Rocket 3.0 16:40:37 10° SSE 16:45:31 31° ESE 16:50:27 10° NE
Starlink T 3.3 16:45:01 10° W 16:47:58 49° NNW 16:50:08 16° NE
SKYMED 2 4.0 16:45:17 10° NNE 16:49:24 40° E 16:53:29 10° SSE
Starlink N 3.4 16:46:28 10° W 16:49:26 48° NNW 16:51:33 17° NE
NOSS 2-1 (C) 4.3 16:46:05 10° NW 16:51:08 63° NE 16:58:10 10° SE
Starlink Q 3.4 16:48:13 10° W 16:51:11 47° NNW 16:53:13 17° NE
Ariane Rocket 4.2 16:47:42 10° ESE 16:51:18 20° ENE 16:54:55 10° NNE
COSMOS 2428 4.0 16:46:43 10° NW 16:52:11 46° WSW 16:57:37 10° S
Starlink P 3.4 16:49:47 10° W 16:52:44 46° NNW 16:54:43 18° NE
Starlink U 3.4 16:51:21 10° W 16:54:18 46° NNW 16:56:13 19° NE
NOSS 2-1 (D) 4.3 16:49:53 10° NW 16:54:58 67° NE 17:02:06 10° SE
Meteor 2-1 Rocket 4.1 16:49:57 10° N 16:55:30 80° ENE 17:01:03 10° SSE
Starlink B 3.5 16:52:56 10° W 16:55:52 45° NNW 16:57:44 19° NE
Starlink AR 3.4 16:54:25 10° W 16:56:52 36° NNW 16:58:10 21° NE
Cosmos 1939 Rocket 3.6 16:55:50 10° SE 16:59:15 30° ENE 17:02:44 10° N
Cosmos 1812 Rocket 3.8 16:54:58 10° NNW 16:59:25 75° W 17:03:54 10° S
Meteor 2-10 Rocket 3.8 16:56:01 10° N 17:01:08 43° ENE 17:06:03 10° SE
Starlink D 3.6 17:01:12 10° W 17:04:09 42° NNW 17:05:42 23° NE
Starlink S 3.6 17:02:35 10° W 17:05:30 41° NNW 17:06:58 23° NE
Cosmos-2242 3.1 17:02:38 10° N 17:06:54 54° ENE 17:11:06 10° SSE
Starlink C 3.6 17:04:28 10° W 17:07:24 41° NNW 17:08:50 24° NE
USA 234 4.3 17:01:38 10° SSE 17:07:51 46° SW 17:14:07 10° WNW
Cosmos 1703 4.2 17:05:43 10° SSE 17:09:01 26° E 17:10:11 23° ENE
Starlink E 3.6 17:06:08 10° W 17:09:05 41° NNW 17:10:26 25° NE
YAOGAN 1 2.6 17:05:02 10° SSE 17:09:15 53° ENE 17:13:28 10° N
Starlink J 3.6 17:07:49 10° W 17:10:45 40° NNW 17:12:02 26° NE
Cosmos 2218 Rocket 4.3 17:05:05 10° SSE 17:11:02 44° E 17:17:02 10° NNE
H-2A R/B 3.5 17:12:07 17° NE 17:12:07 17° NE 17:14:42 10° NNE
Cosmos 44 4.1 17:08:26 10° S 17:12:19 28° ESE 17:13:43 23° E
Starlink V 3.7 17:09:27 10° W 17:12:23 40° NNW 17:13:36 26° NE
Starlink H 3.7 17:11:09 10° W 17:14:05 39° NNW 17:15:13 27° NE
Starlink F 3.7 17:12:49 10° W 17:15:45 39° NNW 17:16:50 28° NE
Cosmos 2251 Rocket 3.9 17:10:49 10° N 17:15:49 40° ENE 17:20:49 10° SE
Starlink G 3.7 17:14:30 10° W 17:17:25 38° NNW 17:18:26 29° NNE
Starlink L 3.7 17:16:11 10° W 17:19:06 38° NNW 17:20:03 29° NNE
CSL-04 Debris 4.1 17:14:09 10° SSE 17:19:29 67° ENE 17:24:52 10° N
Cosmos 2154 Rocket 4.5 17:13:24 10° SSW 17:19:38 64° WNW 17:25:51 10° N
NOAA 15 4.5 17:15:07 10° SSE 17:20:21 75° ENE 17:25:39 10° NNW
Starlink A 3.8 17:17:52 10° W 17:20:48 38° N 17:21:40 30° NNE
Starlink R 3.8 17:19:35 10° W 17:22:29 37° NNW 17:23:18 31° NNE
Starlink K 3.8 17:21:14 10° W 17:24:09 37° N 17:24:53 31° NNE
USA 32 4.0 17:19:05 10° S 17:24:19 88° W 17:29:35 10° N
ATLAS CENTAUR R/B 2.1 17:21:03 10° NNW 17:24:44 30° NE 17:25:06 29° NE
Starlink M 3.8 17:22:53 10° W 17:25:48 37° N 17:26:28 32° NNE
ISS -2.8 17:24:58 10° SSW 17:27:59 31° SE 17:28:19 31° SE
CZ-4 R/B 1.6 17:26:32 10° S 17:30:34 74° WSW 17:34:43 10° NNW
Cosmos 1959 Rocket 4.4 17:26:42 10° S 17:32:45 61° E 17:38:46 10° NNE
Cosmos 2237 Rocket 3.0 17:29:44 10° NW 17:35:11 52° WSW 17:40:37 10° S
ATLAS CENTAUR R/B 4.4 17:30:07 10° W 17:36:29 59° N 17:48:22 21° ENE
YAOGAN 6 4.3 17:33:18 10° SSW 17:36:43 35° W 17:40:08 10° NNW
COSMO-SKYMED 1 2.9 17:33:15 10° N 17:37:35 68° WNW 17:41:53 10° SSW
CZ-2D R/B 3.1 17:35:09 10° SSE 17:38:58 79° ENE 17:42:50 10° N
Cosmos 1953 Rocket 3.5 17:35:24 10° S 17:39:52 76° E 17:44:23 10° NNE
CZ-2C R/B 4.4 17:42:25 23° NE 17:42:25 23° NE 17:45:34 10° N
Cosmos 1842 Rocket 4.3 17:38:35 10° N 17:41:42 33° NE 17:41:42 33° NE
ADEOS Rocket 3.5 17:37:42 10° NNE 17:44:02 47° E 17:50:57 10° S
Cosmos 1758 Rocket 4.1 17:40:35 10° SSW 17:44:49 59° WNW 17:49:06 10° N
Cosmos 2366 rocket 3.9 17:38:53 10° S 17:45:03 73° E 17:51:20 10° NNE
CSL-04 Rocket 3.8 17:39:52 10° SSE 17:45:22 80° WSW 17:50:58 10° NNW
Cosmos 1932 4.4 17:39:57 10° SSW 17:46:19 81° SE 17:50:20 25° NE
Meteor 1-27 4.3 17:43:48 10° N 17:49:13 50° ENE 17:53:15 18° SE
Cosmos 1455 2.5 17:45:27 10° NNW 17:49:15 67° W 17:53:00 10° S
Cosmos 1356 Rocket 3.6 17:46:18 10° N 17:49:34 48° NE 17:49:34 48° NE
ATLAS 5 CENTAUR R/B 3.9 17:48:24 10° WNW 17:51:37 18° NNW 17:53:54 14° NNE
Meteor 1-11 4.2 17:47:40 10° S 17:53:06 54° E 17:56:19 24° NNE
ERBS 2.6 17:52:26 10° WSW 17:55:37 60° NW 17:55:37 60° NW
SL-16 R/B 2.2 17:51:54 10° NNW 17:57:38 86° WSW 18:03:18 10° SSE
Cosmos 2219 4.0 17:59:22 10° SW 18:04:48 48° NW 18:09:13 16° NNE
Cosmos 1328 4.0 18:00:50 10° SSW 18:04:50 72° W 18:06:16 38° N
Meteor 2-12 Rocket 4.4 17:59:48 10° S 18:05:42 59° E 18:11:39 10° NNE
IRS-1A Rocket 4.2 18:00:22 10° SSE 18:06:07 72° ENE 18:11:46 10° NNW
Cosmos 2082 3.5 18:01:20 10° SSW 18:06:57 80° ESE 18:08:58 42° NE
Cosmos 1603 4.3 18:04:30 10° NNW 18:09:07 39° NNE 18:09:07 39° NNE
Cosmos 1727 Rocket 3.9 18:03:46 10° N 18:10:00 88° W 18:16:10 10° S
USA 267 3.9 18:12:10 31° NE 18:14:42 45° N 18:20:50 10° W
Cosmos 2297 Rocket 2.8 18:11:18 10° SW 18:16:49 54° WNW 18:20:19 23° NNE
MOS 1 4.2 18:15:28 47° SE 18:17:06 70° ENE 18:22:47 10° N
Cosmos 2227 Rocket 3.0 18:23:55 10° SW 18:29:23 48° NW 18:32:19 26° N
Ariane Rocket 3.2 18:24:43 10° S 18:29:45 69° WSW 18:34:51 10° NNW
ARGOS 4.1 18:40:06 37° N 18:40:06 37° N 18:43:18 10° N
SL-8 R/B 4.4 18:34:53 10° WSW 18:38:29 49° SW 18:38:29 49° SW
Cosmos 1943 4.2 18:39:27 10° NNW 18:42:49 35° N 18:42:49 35° N
H-2A R/B 3.3 18:52:43 31° NNW 18:52:43 31° NNW 18:55:22 10° NNW
Cosmos 44 4.5 18:48:59 10° WSW 18:52:11 37° W 18:52:11 37° W
Cosmos 1821 Rocket 4.1 18:47:27 10° S 19:01:34 - N 18:52:56 68° SSW
ATLAS CENTAUR R/B 3.8 18:59:59 10° NW 19:01:19 19° WNW 19:01:19 19° WNW
ADEOS Rocket 4.4 19:23:30 10° N 19:29:26 40° WNW 19:35:57 10° SW
